Location: Julian California
(33.0790°N, 116.6010°W)
Time: 23:59:05
(UTC-08:00)

OAO 3 Copernicus - Pass Details

Date: 14 June 2018
Orbit: 695 x 705 km, 35.0° (Epoch: 16 November)

Event Time Altitude Azimuth Distance (km) Brightness Sun altitude
Rises 20:33:13 0° 240° (WSW) 3,065 8.0 -7.4°
Reaches altitude 10° 20:35:40 10° 236° (SW) 2,148 7.1 -7.8°
Maximum altitude 20:40:35 56° 158° (SSE) 822 4.4 -8.7°
Drops below altitude 10° 20:45:30 10° 81° (E) 2,146 6.4 -9.5°
Enters shadow 20:47:50 - 77° (ENE) 3,021 7.2 -9.9°
